Location: Mountain Grove
(34.0887°N, 86.6172°W)
Time: 13:29:11
(UTC+00:00)

Cosmos 2369 - Pass Details

Date: 14 July 2020
Orbit: 838 x 857 km, 71.0° (Epoch: 13 August)

Event Time Altitude Azimuth Distance (km) Brightness Sun altitude
Rises 08:31:04 0° 336° (NNW) 3,431 7.2 -22.7°
Reaches altitude 10° 08:33:32 10° 334° (NNW) 2,492 6.4 -22.4°
Maximum altitude 08:39:14 70° 252° (WSW) 909 3.6 -21.6°
Enters shadow 08:42:04 30° 176° (S) 1,472 4.6 -21.3°
